SCP
0 0 0 0 0 0 0 0 0 0 0 0 0 0 0 0 0 0 0 0 0 0 0 0 0 1 1 1 1 1 1 1 1 0 0 0 0 1 1 0 0 0 0 0
0 0 0 0 0 0 0 0 0 0 0 0 0 0 0 0 0 0 0 0 0 0 0 0 0 1 1 1 1 1 1 1 1 0 0 0 0 0 0 0 0 0 0 0
0 0 0 0 0 0 0 0 0 0 0 0 0 0 0 0 0 0 0 0 0 0 0 0 0 0 1 1 1 1 1 1 1 0 0 0 0 0 0 0 0 0 0 0
0 0 0 0 0 0 0 0 0 0 0 0 0 0 0 0 0 0 0 0 0 0 0 0 0 0 1 1 1 1 1 1 1 0 0 0 0 0 0 0 0 0 0 0
0 0 0 0 0 0 0 0 0 0 0 0 0 0 0 0 0 0 0 0 0 0 0 0 0 0 0 1 1 1 1 1 1 1 0 0 0 0 0 0 0 0 0 0
0 0 0 0 0 0 0 0 0 0 0 0 0 0 0 0 0 0 0 0 0 0 0 0 0 0 0 0 1 1 1 1 1 1 0 0 0 0 0 0 0 0 0 0
0 0 0 0 0 0 0 0 0 0 0 0 0 0 0 0 0 0 0 0 0 0 0 0 0 0 0 0 0 1 1 1 1 0 0 0 0 0 0 0 0 0 0 0
0 0 0 0 0 0 0 0 0 0 0 0 0 0 0 0 0 0 0 0 0 0 0 0 0 0 0 0 0 1 1 1 0 0 0 0 0 0 0 0 0 0 0 0
0 0 0 0 0 0 0 0 0 0 0 0 0 0 0 0 0 0 0 0 0 0 0 0 0 0 0 0 0 0 1 0 0 0 0 0 0 0 0 0 0 0 0 0
0 0 0 0 0 0 0 0 0 0 0 0 0 0 0 0 0 0 0 0 0 0 0 0 0 0 0 0 0 0 0 0 0 0 0 0 0 0 0 0 0 0 0 0
0 0 0 0 0 0 0 0 0 0 0 0 0 0 0 0 0 0 0 0 0 0 0 0 0 0 0 0 0 0 0 0 0 0 0 0 0 0 0 0 0 0 0 0
0 0 0 0 0 0 0 0 0 0 0 0 0 0 0 0 0 0 0 0 0 0 0 0 0 0 0 0 0 0 0 0 0 0 0 0 0 0 0 0 0 0 0 0
0 0 0 0 0 0 0 0 0 0 0 0 0 0 0 0 0 0 0 0 0 0 0 0 0 0 0 0 0 0 0 0 0 0 0 0 0 0 0 0 0 0 0 0
0 0 0 0 0 0 0 0 0 0 0 0 0 0 0 0 0 0 0 0 0 0 0 0 0 0 0 0 0 0 0 0 0 0 0 0 0 0 0 0 0 0 0 0
0 0 0 0 0 0 0 0 0 0 0 0 0 0 0 0 0 0 0 0 0 0 0 0 0 0 0 0 0 0 0 0 0 0 0 0 0 0 0 0 0 0 0 0
0 0 0 0 0 0 0 0 0 0 0 0 0 0 0 0 0 0 0 0 0 0 0 0 0 0 0 0 0 0 0 0 0 0 0 0 0 0 0 0 0 0 0 0
0 0 0 0 0 0 0 0 0 0 0 0 0 0 0 0 0 0 0 0 0 0 0 0 0 0 0 0 0 0 0 0 0 0 0 0 0 0 0 0 0 0 0 0
0 0 0 0 0 0 0 0 0 0 0 0 0 0 0 0 0 0 0 0 0 0 0 0 0 0 0 0 0 0 0 0 0 0 0 0 0 0 0 0 0 0 0 0
0 0 0 0 0 0 0 0 0 0 0 0 0 0 0 0 0 0 0 0 0 0 0 0 0 0 0 0 0 0 0 0 0 0 0 0 0 0 0 0 0 0 0 0
0 0 0 0 0 0 0 0 0 0 0 0 0 0 0 0 0 0 0 0 0 0 0 0 0 0 0 0 0 0 0 0 0 0 0 0 0 0 0 0 0 0 0 0
0 0 0 0 0 0 0 0 0 0 0 0 0 0 0 0 0 0 0 0 0 0 0 0 0 0 0 0 0 0 0 0 0 0 0 0 0 0 0 0 0 0 0 0
0 0 0 0 0 0 0 0 0 0 0 0 0 0 0 0 0 0 0 0 0 0 0 0 0 0 0 0 0 0 0 0 0 0 0 0 0 0 0 0 0 0 0 0
0 0 0 0 0 0 0 0 0 0 0 0 0 0 0 0 0 0 0 0 0 0 0 0 0 0 0 0 0 0 0 0 0 0 0 0 0 0 0 0 0 0 0 0
0 0 0 0 0 0 0 0 0 0 0 0 0 0 0 0 0 0 0 0 0 0 0 0 0 0 0 0 0 0 0 0 0 0 0 0 0 0 0 0 0 0 0 0
0 0 0 0 0 0 0 0 0 0 0 0 0 0 0 0 0 0 0 0 0 0 0 0 0 0 0 0 0 0 0 0 0 0 0 0 0 0 0 0 0 0 0 0
0 0 0 0 0 0 0 0 0 0 0 0 0 0 0 0 0 0 0 0 0 0 0 0 0 0 0 0 0 0 0 0 0 0 0 0 0 0 0 0 0 0 0 0
Wind_Speed
2 4 2 5 5 3 2 2 4 5 2 3 7 11 11 7 6 7 7 7 8 8 7 5 6 6 6 5 6 6 6 6 5 4 3 3 3 2 2 2 2 2 2 3
3 2 5 2 2 2 2 3 4 5 2 2 6 11 10 7 8 8 9 9 8 7 5 5 5 5 6 7 6 6 7 7 6 5 4 3 3 2 2 1 2 2 2 3
5 3 2 2 1 2 3 4 4 4 5 3 4 9 6 5 5 5 7 7 7 9 9 7 7 7 7 7 7 6 7 7 6 5 3 2 2 1 1 1 2 2 2 2
1 2 1 1 2 2 4 3 2 2 2 4 0 6 8 4 5 6 7 7 8 8 8 7 7 7 7 8 6 6 6 7 6 6 5 6 4 4 4 3 2 1 2 2
2 1 1 3 3 2 3 1 1 2 1 3 1 3 10 3 6 8 8 8 8 8 8 8 8 8 7 6 6 6 6 6 6 7 7 6 4 3 2 1 2 2 1 1
2 1 1 2 1 2 1 1 2 2 2 3 4 4 9 5 7 6 6 7 8 7 7 7 5 4 5 5 5 5 6 6 6 7 7 6 6 4 3 3 3 2 2 2
2 2 1 1 1 1 1 3 3 4 3 6 2 4 11 7 6 6 7 6 6 5 6 6 5 5 5 5 5 5 6 6 6 7 7 7 7 6 6 5 4 3 2 2
2 4 2 1 3 3 3 4 5 4 5 6 3 7 9 5 4 4 3 2 2 3 4 6 6 6 6 6 6 5 6 6 6 7 7 6 6 5 4 5 4 4 4 4
4 4 1 0 0 2 3 3 3 4 0 3 6 8 9 2 3 2 1 1 2 3 4 5 5 5 5 5 6 6 6 5 5 6 5 5 5 5 5 4 4 4 3 3
4 2 1 1 1 1 1 3 3 3 3 4 7 6 5 4 4 3 2 2 3 2 3 3 4 5 5 5 5 4 5 5 4 4 5 4 5 5 5 4 4 4 4 3
2 3 1 1 4 5 3 3 3 3 4 4 4 8 5 4 3 3 3 3 3 3 3 3 3 3 3 3 4 4 4 3 3 4 4 4 4 4 4 4 5 4 4 4
3 3 2 5 2 1 3 4 5 3 4 4 3 10 4 2 2 1 2 2 2 2 1 2 1 1 1 1 2 3 3 4 4 4 3 3 3 3 3 3 3 3 4 4
4 4 1 4 2 1 3 4 4 2 2 3 5 10 3 2 3 2 2 2 1 1 1 1 0 1 1 1 1 2 2 3 2 3 3 3 3 3 3 3 3 3 3 3
3 4 6 8 5 4 5 5 5 5 4 6 10 10 9 7 5 5 3 2 2 1 1 1 1 1 1 1 1 1 2 1 1 2 2 3 3 4 3 3 3 3 3 3
4 4 5 6 4 3 6 7 8 10 10 10 10 9 12 7 5 4 3 3 2 2 2 1 2 2 1 1 1 1 1 1 1 2 2 3 2 2 2 2 3 3 3 3
3 4 2 4 4 4 8 10 10 11 9 11 10 13 9 6 3 3 3 3 3 3 3 2 2 2 2 2 2 2 1 1 1 2 2 1 1 1 1 2 2 2 2 2
4 5 3 5 3 3 10 12 13 9 9 9 12 13 5 3 3 4 3 3 4 4 3 3 3 3 2 2 2 2 2 1 1 1 1 1 1 2 2 1 2 2 3 2
6 5 3 2 1 9 9 3 8 8 7 9 9 8 6 5 4 3 3 3 4 4 3 3 2 2 2 1 1 1 0 0 0 1 1 1 2 2 1 2 2 3 2 3
5 6 4 3 5 11 9 4 6 7 7 8 10 10 7 3 3 3 2 2 3 3 3 2 2 1 1 0 0 0 0 0 1 2 2 2 2 3 2 3 3 3 3 3
1 3 4 4 5 9 7 2 3 4 5 4 6 8 5 1 2 5 3 2 2 2 2 1 1 1 0 1 0 1 1 1 3 3 3 3 3 3 4 4 3 2 3 3
4 3 6 6 7 11 7 1 4 5 6 1 2 3 2 4 6 4 3 3 2 2 2 1 1 1 1 1 0 1 2 3 4 3 2 2 3 3 3 3 2 2 2 2
10 8 8 6 7 12 2 5 6 6 1 1 0 1 3 5 5 4 4 3 3 2 2 2 1 2 2 1 1 2 4 4 2 2 2 3 3 2 2 2 2 2 2 3
9 10 8 11 10 4 4 5 3 1 1 1 1 2 2 3 5 5 4 3 3 2 2 2 2 2 2 1 1 3 4 2 2 2 3 3 2 2 2 2 2 2 2 3
5 2 4 6 8 5 3 3 2 1 2 3 2 3 2 4 5 5 4 3 3 3 3 2 2 2 3 3 3 3 3 2 2 3 3 2 2 2 2 2 2 3 3 3
6 5 4 7 6 3 4 4 5 4 3 4 4 3 3 4 5 4 4 4 3 3 2 2 2 3 4 4 4 3 3 2 2 3 2 2 2 2 2 3 3 4 4 4
5 7 8 9 6 5 5 3 2 3 4 5 4 4 3 3 5 4 4 4 3 3 3 3 3 4 4 4 4 4 3 2 3 3 3 2 2 2 2 3 3 5 5 6
Wind_Direction
76 86 189 214 210 206 184 205 255 262 261 259 255 267 272 261 241 243 243 237 232 232 230 211 200 195 187 189 190 190 191 191 178 172 170 179 194 194 197 201 193 188 191 185
65 228 234 240 234 224 228 249 272 291 290 267 280 278 271 246 232 228 227 230 228 227 224 215 203 198 195 195 194 193 196 191 185 185 182 182 178 188 197 197 197 197 195 193
177 222 232 196 216 211 244 226 241 273 316 295 303 298 274 259 239 235 229 226 222 216 216 214 207 206 200 198 196 198 199 193 189 180 159 134 111 102 159 208 215 220 201 194
194 264 232 188 223 204 240 226 228 261 327 299 340 292 284 262 262 240 233 232 230 225 218 212 208 206 205 202 195 195 196 194 188 175 170 169 177 188 202 201 205 229 216 202
229 210 182 213 227 194 216 243 239 246 246 296 256 245 283 283 260 250 237 233 231 225 214 208 206 205 203 195 191 193 188 193 188 180 180 182 189 195 180 173 183 212 231 218
227 250 205 210 248 205 188 32 33 39 71 277 229 204 276 243 235 253 242 231 227 222 211 208 203 195 198 192 192 189 188 195 190 185 186 188 188 183 173 187 201 211 218 225
305 274 257 169 92 4 110 96 24 355 348 255 245 223 253 255 247 240 238 231 223 215 202 199 197 195 197 194 200 196 192 195 193 191 193 195 195 189 192 197 202 203 212 223
190 267 227 205 183 194 206 157 162 201 239 281 285 240 255 269 279 265 238 221 208 207 202 197 197 196 198 198 198 196 193 196 195 198 201 200 197 196 202 201 200 203 210 219
180 236 357 272 320 161 172 197 179 139 132 284 271 276 295 293 318 324 321 287 243 227 217 208 196 194 198 199 201 196 194 195 199 202 200 200 200 200 203 201 201 205 211 208
159 205 278 328 42 288 188 157 122 146 176 266 286 270 258 281 288 294 295 268 261 251 223 212 200 198 198 198 196 189 191 195 198 201 202 200 202 205 203 196 202 206 209 203
142 162 281 324 206 197 169 179 175 169 180 186 268 272 236 226 240 240 252 257 250 250 232 217 208 198 194 185 184 189 193 194 194 199 201 197 199 200 200 202 207 207 204 198
161 136 237 244 230 265 213 198 167 183 234 215 236 271 275 228 265 243 271 292 292 276 252 220 195 148 153 186 197 197 197 202 205 198 192 195 194 190 195 205 209 200 199 198
146 133 60 332 307 275 235 217 191 166 156 193 213 261 307 342 339 338 323 314 321 329 345 356 87 167 197 206 208 212 211 214 205 184 183 193 195 191 200 210 209 199 200 201
130 168 189 209 223 187 227 234 200 174 198 224 231 256 293 313 319 319 320 308 309 325 340 354 313 269 244 226 214 219 232 218 193 178 185 202 207 203 204 205 202 204 203 202
141 209 231 253 261 227 235 233 208 208 213 219 244 252 269 278 276 278 293 302 319 328 320 283 272 279 288 288 269 247 239 224 172 170 193 220 216 201 193 199 205 206 207 211
159 196 214 274 253 248 261 245 222 229 232 238 258 269 262 269 278 288 293 295 289 282 273 274 279 281 269 262 263 266 249 227 178 188 219 225 187 175 194 205 201 200 209 217
173 163 180 260 302 334 265 230 206 213 216 206 229 246 264 277 285 272 274 281 271 271 270 266 256 247 251 256 248 244 251 246 176 209 241 227 207 207 214 206 198 208 213 209
166 163 178 231 43 242 246 194 186 199 229 217 239 262 264 248 265 260 254 260 276 284 284 280 269 265 275 275 287 291 355 65 230 258 263 256 224 227 222 213 225 230 223 218
179 165 167 176 233 269 284 238 178 192 248 227 236 259 273 275 307 286 274 253 253 266 269 260 256 259 277 286 304 121 150 285 263 272 272 265 233 221 215 223 235 236 229 230
122 146 165 180 209 241 253 236 184 145 268 251 224 248 267 155 269 276 326 325 304 312 316 312 336 17 2 325 92 164 219 240 254 260 263 260 240 226 227 232 235 239 234 236
154 178 198 204 227 257 260 259 131 173 242 275 215 247 237 213 230 275 325 325 316 318 333 1 13 332 304 332 138 214 241 249 262 275 274 260 243 235 237 243 244 242 239 241
176 177 194 181 215 250 226 135 178 214 255 35 268 238 233 252 275 296 309 311 322 335 350 359 344 321 338 6 209 247 253 270 294 282 262 256 247 235 225 228 244 242 231 238
200 193 188 195 215 237 165 182 205 164 247 279 280 278 249 262 278 293 302 309 314 316 327 340 326 315 329 334 277 258 277 300 298 275 262 263 257 242 227 215 224 228 227 234
234 210 193 236 254 243 231 252 272 265 254 274 276 283 266 259 273 286 297 309 317 318 318 329 328 312 307 309 298 281 294 295 266 257 262 262 248 253 248 229 219 218 220 229
213 183 204 242 258 287 264 238 252 266 266 273 279 273 263 266 277 281 289 296 299 303 308 306 286 281 289 300 298 300 297 276 261 259 261 257 243 237 242 239 233 231 228 224
184 186 193 228 221 213 250 256 262 257 267 268 276 288 289 264 273 285 282 285 291 293 298 294 285 283 290 296 296 302 297 261 247 255 255 247 242 237 235 244 265 257 254 256